Home > Weather > Clovis > Past weeks

Flag for USA Past Weather in Clovis, New Mexico, USA — Yesterday and Last 2 Weeks

Now
74 °F

Overcast.


Feels Like: 76 °F
Forecast: 66 / 88 °F
Wind: 7 mph from East

Location: Cannon Air Force Base / Clovis

Current Time: Jul 1, 2016 at 9:26:44 AM

Latest Report: Jul 1, 2016 at 8:58 AM


Visibility: 10 mi

Pressure: 30.01 "Hg (25.83 "Hg at 1300m altitude)

Humidity: 62%

Dew Point: 60 °F

Location of ClovisLocation

Past Weather in Clovis — Graph

°F

Clovis Temperature Yesterday

Maximum temperature yesterday: 92 °F (at 2:58 PM)
Minimum temperature yesterday: 68 °F (at 4:58 AM)
Average temperature yesterday: 78 °F

High & Low Weather Summary for the Past Weeks

 TemperatureHumidityPressure
High100 °F (Jun 22, 4:58 PM)100% (Jun 19, 2:58 AM)30.27 "Hg (Jun 19, 2:58 AM)
Low61 °F (Jun 18, 1:58 AM)6% (Jun 17, 1:58 PM)29.74 "Hg (Jun 16, 5:58 PM)
Average78 °F52%29.98 "Hg
* Reported Jun 16 7:58 AM — Jul 1 7:58 AM, Clovis, Weather by CustomWeather, © 2016

Note: Actual official high and low records may vary slightly from our data, if they occured in-between our weather recording intervals... More about our weather records

Advertising

Clovis Weather History for the Previous 24 Hours

Scroll right to see more
 ConditionsComfort  
Time TempWeatherWind HumidityBarometerVisibility
7:58 AM
Fri, Jul 1
72 °FMostly cloudy.3 mph67%29.99 "Hg10 mi
6:58 AM69 °FMostly cloudy.5 mph72%29.98 "Hg10 mi
5:58 AM70 °FMostly cloudy.2 mph67%29.96 "Hg10 mi
4:58 AM71 °FOvercast.7 mph65%29.93 "Hg10 mi
3:58 AM72 °FMostly cloudy.6 mph64%29.92 "Hg10 mi
2:58 AM72 °FMostly cloudy.8 mph64%29.92 "Hg10 mi
1:58 AM73 °FOvercast.12 mph59%29.92 "Hg10 mi
12:58 AM73 °FOvercast.16 mph57%29.93 "Hg10 mi
11:58 PM
Thu, Jun 30
73 °FOvercast.8 mph62%29.95 "Hg10 mi
10:58 PM73 °FOvercast.17 mph59%29.96 "Hg10 mi
9:58 PM73 °FOvercast.14 mph56%29.96 "Hg10 mi
8:58 PM73 °FPartly sunny.13 mph55%29.94 "Hg10 mi
7:58 PM76 °FPassing clouds.21 mph53%29.88 "Hg10 mi
6:58 PM80 °FOvercast.18 mph46%29.89 "Hg10 mi
5:58 PM79 °FLight rain. Broken clouds.20 mph48%29.89 "Hg10 mi
4:58 PM89 °FBroken clouds.8 mph28%29.85 "Hg10 mi
3:58 PM92 °FScattered clouds.13 mph24%29.86 "Hg10 mi
2:58 PM92 °FPassing clouds.12 mph26%29.87 "Hg10 mi
1:58 PM90 °FScattered clouds.16 mph30%29.90 "Hg10 mi
12:58 PM88 °FPartly sunny.12 mph33%29.92 "Hg10 mi
11:58 AM87 °FPassing clouds.12 mph37%29.95 "Hg10 mi
10:58 AM83 °FSunny.13 mph46%29.98 "Hg10 mi
9:58 AM81 °FSunny.10 mph51%29.99 "Hg10 mi
Weather by CustomWeather, © 2016

See weather overviewHow to use our weather pages